Location: Newark
(45.8944°N, 12.5886°E)
Time: 01:42:08
(UTC+00:00)

EO-88 - Visible Passes

Search period start: 03 April 2020 00:00
Search period end: 13 April 2020 00:00
Orbit: 483 x 490 km, 97.4° (Epoch: 01 April)

Date Brightness Start Highest point End Pass type
(mag) Time Alt. Az. Time Alt. Az. Time Alt. Az.
03 Apr ? 19:48:34 17° NE 19:48:34 17° NE 19:49:55 10° NNE visible
03 Apr ? 21:22:57 15° NW 21:22:57 15° NW 21:23:46 10° NNW visible
04 Apr ? 19:24:35 11° NE 19:24:35 11° NE 19:25:07 10° NE visible
04 Apr ? 20:58:59 22° NNW 20:58:59 22° NNW 21:00:24 10° NNW visible
05 Apr ? 20:34:59 27° N 20:34:59 27° N 20:36:46 10° N visible
06 Apr ? 20:11:00 25° NNE 20:11:00 25° NNE 20:12:54 10° N visible
06 Apr ? 21:45:25 11° NW 21:45:25 11° NW 21:45:38 10° NW visible
07 Apr ? 19:47:01 18° NE 19:47:01 18° NE 19:48:44 10° NNE visible
07 Apr ? 21:21:25 18° NW 21:21:25 18° NW 21:22:38 10° NNW visible
08 Apr ? 19:23:02 11° NE 19:23:02 11° NE 19:23:50 10° NE visible
08 Apr ? 20:57:26 27° NNW 20:57:26 27° NNW 20:59:14 10° NNW visible
09 Apr ? 20:33:26 33° N 20:33:26 33° N 20:35:35 10° N visible
10 Apr ? 20:09:26 28° NE 20:09:26 28° NE 20:11:42 10° N visible
10 Apr ? 21:43:51 13° WNW 21:43:51 13° WNW 21:44:29 10° NW visible
11 Apr ? 19:45:27 18° NE 19:45:27 18° NE 19:47:30 10° NNE visible
11 Apr ? 21:19:51 21° NW 21:19:51 21° NW 21:21:28 10° NNW visible
12 Apr ? 19:21:27 11° ENE 19:21:27 11° ENE 19:22:29 10° NE visible
12 Apr ? 20:55:51 33° NNW 20:55:51 33° NNW 20:58:02 10° NNW visible
